Tracking 19638 objects as of 20-Apr-2019
HD Live streaming from Space Station
objects crossing your sky now

THORAD DELTA 1 DEB

Track THORAD DELTA 1 DEB now!
10-day predictions


NORAD ID: 8310
Int'l Code: 1974-089BT
Perigee: 1,460.1 km
Apogee: 1,565.1 km
Inclination: 101.7 °
Period: 116.1 minutes
Semi major axis: 7883 km
RCS: 0.5201 m2 (medium)
Launch date: November 15, 1974
Source: United States (US)
Launch site: AIR FORCE WESTERN TEST RANGE (AFWTR)

Note: This is SATELLITE DEBRIS
aabbcc
Your satellite tracking list
Your tracking list is empty




NASA's NSSDC Master Catalog

Two Line Element Set (TLE):
1  8310U 74089BT  19109.83741437 -.00000064  00000-0 -16029-3 0  9990
2  8310 101.7277 175.8669 0066624 136.7144 336.3089 12.40270977 11341
Source of the keplerian elements: AFSPC